Weather History for Idabel, OK

Change the Weather History Date:

Monday, February 24, 2014

  Actual Average (KDEQ) Record (KDEQ)
Temperature  
Mean Temperature 42 °F 48 °F  
Max Temperature 50 °F 61 °F 83 °F (1996)
Min Temperature 35 °F 35 °F 19 °F (1965)
Degree Days  
Heating Degree Days 22 17  
Month to date heating degree days 489  
Since 1 July heating degree days 2425  
Cooling Degree Days 0 0  
Month to date cooling degree days 0  
Year to date cooling degree days 1  
Moisture  
Dew Point 31 °F    
Average Humidity 60    
Maximum Humidity 81    
Minimum Humidity 46    
Precipitation  
Precipitation 0.00 in 0.11 in 2.84 in (1949)
Month to date precipitation 3.29  
Year to date precipitation 6.61  
Snow  
Snow 0.00 in - - ()
Month to date snowfall  
Since 1 July snowfall  
Snow Depth -    
Sea Level Pressure  
Sea Level Pressure 30.15 in    
Wind  
Wind Speed 9 mph (East)    
Max Wind Speed 15 mph    
Max Gust Speed 21 mph    
Visibility 10 miles    
Events      
T = Trace of Precipitation, MM = Missing Value Source: NWS Daily Summary

Daily Weather History Graph

Daily Weather History Graph

Search for Another Location

Airport:

Trip Planner

Search our weather history database for the weather conditions in past years. The results will help you decide how hot, cold, wet, or windy it might be!

Date:

Astronomy

Feb. 24, 2014 Rise Set
Actual Time 6:54 AM CST 6:11 PM CST
Civil Twilight 6:28 AM CST 6:36 PM CST
Nautical Twilight 5:59 AM CST 7:05 PM CST
Astronomical Twilight 5:30 AM CST 7:34 PM CST
Moon 2:45 AM CST (2/24) 1:21 PM CST (2/24)
Length of Visible Light 12h 08m
Length of Day
11h 17m
Waning Crescent, 28% of the Moon is Illuminated
Feb 24
Waning Crescent
Mar 1
New
Mar 8
First Quarter
Mar 16
Full
Mar 23
Last Quarter

Hourly Weather History & Observations

Time (CST) Temp. Windchill Dew Point Humidity Pressure Visibility Wind Dir Wind Speed Gust Speed Precip Events Conditions
12:15 AM 44.6 °F 39.7 °F 35.6 °F 71% 30.15 in 10.0 mi East 9.2 mph - N/A   Clear
12:35 AM 44.6 °F 38.8 °F 33.8 °F 66% 30.14 in 10.0 mi ENE 11.5 mph 18.4 mph N/A   Clear
12:55 AM 44.6 °F 40.2 °F 33.8 °F 66% 30.15 in 10.0 mi ENE 8.1 mph - N/A   Clear
1:15 AM 42.8 °F 38.0 °F 33.8 °F 70% 30.15 in 10.0 mi ENE 8.1 mph - N/A   Clear
1:35 AM 42.8 °F 38.0 °F 33.8 °F 70% 30.15 in 10.0 mi East 8.1 mph - N/A   Clear
1:55 AM 41.0 °F 35.2 °F 33.8 °F 76% 30.15 in 10.0 mi East 9.2 mph - N/A   Clear
2:15 AM 41.0 °F 35.8 °F 33.8 °F 76% 30.15 in 10.0 mi East 8.1 mph - N/A   Clear
2:35 AM 41.0 °F 35.8 °F 33.8 °F 76% 30.15 in 10.0 mi East 8.1 mph - N/A   Clear
2:55 AM 41.0 °F 35.2 °F 32.0 °F 70% 30.15 in 10.0 mi East 9.2 mph - N/A   Clear
3:15 AM 41.0 °F 34.7 °F 32.0 °F 70% 30.14 in 10.0 mi ENE 10.4 mph - N/A   Clear
3:35 AM 39.2 °F 32.5 °F 32.0 °F 75% 30.14 in 10.0 mi East 10.4 mph - N/A   Clear
3:55 AM 39.2 °F 31.2 °F 32.0 °F 75% 30.15 in 10.0 mi East 13.8 mph 18.4 mph N/A   Clear
4:15 AM 39.2 °F 32.5 °F 32.0 °F 75% 30.16 in 10.0 mi East 10.4 mph 20.7 mph N/A   Clear
4:35 AM 39.2 °F 33.0 °F 32.0 °F 75% 30.17 in 10.0 mi East 9.2 mph - N/A   Clear
4:55 AM 37.4 °F 29.3 °F 32.0 °F 81% 30.16 in 10.0 mi East 12.7 mph - N/A   Clear
5:15 AM 37.4 °F 30.3 °F 32.0 °F 81% 30.17 in 10.0 mi East 10.4 mph - N/A   Clear
5:35 AM 37.4 °F 30.8 °F 30.2 °F 75% 30.18 in 10.0 mi East 9.2 mph - N/A   Clear
5:55 AM 37.4 °F 28.5 °F 30.2 °F 75% 30.17 in 10.0 mi East 15.0 mph - N/A   Clear
6:15 AM 37.4 °F 29.3 °F 30.2 °F 75% 30.18 in 10.0 mi East 12.7 mph 19.6 mph N/A   Clear
6:35 AM 35.6 °F 26.2 °F 28.4 °F 75% 30.17 in 10.0 mi East 15.0 mph 19.6 mph N/A   Clear
6:55 AM 35.6 °F 28.0 °F 28.4 °F 75% 30.17 in 10.0 mi East 10.4 mph - N/A   Clear
7:15 AM 35.6 °F 27.5 °F 28.4 °F 75% 30.17 in 10.0 mi East 11.5 mph 17.3 mph N/A   Clear
7:35 AM 35.6 °F 27.1 °F 26.6 °F 70% 30.18 in 10.0 mi East 12.7 mph - N/A   Clear
7:55 AM 37.4 °F 28.5 °F 26.6 °F 65% 30.19 in 10.0 mi East 15.0 mph 20.7 mph N/A   Clear
8:15 AM 37.4 °F 29.3 °F 26.6 °F 65% 30.19 in 10.0 mi East 12.7 mph 20.7 mph N/A   Clear
8:35 AM 37.4 °F 30.3 °F 24.8 °F 60% 30.20 in 10.0 mi East 10.4 mph - N/A   Clear
8:55 AM 41.0 °F 34.3 °F 26.6 °F 57% 30.21 in 10.0 mi East 11.5 mph 16.1 mph N/A   Clear
9:15 AM 42.8 °F 37.5 °F 26.6 °F 53% 30.23 in 10.0 mi East 9.2 mph - N/A   Clear
9:35 AM 42.8 °F 37.5 °F 26.6 °F 53% 30.22 in 10.0 mi East 9.2 mph - N/A   Clear
9:55 AM 44.6 °F 39.2 °F 26.6 °F 49% 30.23 in 10.0 mi East 10.4 mph - N/A   Mostly Cloudy
10:15 AM 44.6 °F 39.7 °F 26.6 °F 49% 30.23 in 10.0 mi East 9.2 mph - N/A   Mostly Cloudy
10:35 AM 44.6 °F 39.2 °F 26.6 °F 49% 30.23 in 10.0 mi East 10.4 mph - N/A   Mostly Cloudy
10:55 AM 44.6 °F 38.1 °F 26.6 °F 49% 30.21 in 10.0 mi ENE 13.8 mph - N/A   Mostly Cloudy
11:15 AM 46.4 °F 42.4 °F 26.6 °F 46% 30.20 in 10.0 mi East 8.1 mph - N/A   Mostly Cloudy
11:35 AM 46.4 °F 43.5 °F 28.4 °F 50% 30.20 in 10.0 mi East 5.8 mph - N/A   Mostly Cloudy
11:55 AM 46.4 °F 42.9 °F 28.4 °F 50% 30.20 in 10.0 mi East 6.9 mph - N/A   Scattered Clouds
12:15 PM 46.4 °F 41.9 °F 30.2 °F 53% 30.19 in 10.0 mi ENE 9.2 mph - N/A   Mostly Cloudy
12:35 PM 48.2 °F - 30.2 °F 50% 30.17 in 10.0 mi East 9.2 mph - N/A   Mostly Cloudy
12:55 PM 48.2 °F - 30.2 °F 50% 30.17 in 10.0 mi ENE 8.1 mph - N/A   Mostly Cloudy
1:15 PM 50.0 °F - 30.2 °F 47% 30.17 in 10.0 mi East 6.9 mph - N/A   Mostly Cloudy
1:35 PM 50.0 °F - 30.2 °F 47% 30.15 in 10.0 mi East 10.4 mph - N/A   Mostly Cloudy
1:55 PM 50.0 °F - 30.2 °F 47% 30.14 in 10.0 mi ENE 6.9 mph - N/A   Scattered Clouds
2:15 PM 50.0 °F - 32.0 °F 50% 30.14 in 10.0 mi East 6.9 mph - N/A   Mostly Cloudy
2:35 PM 50.0 °F - 30.2 °F 47% 30.13 in 10.0 mi East 4.6 mph - N/A   Mostly Cloudy
2:55 PM 50.0 °F - 30.2 °F 47% 30.12 in 10.0 mi ESE 6.9 mph - N/A   Mostly Cloudy
3:15 PM 50.0 °F - 32.0 °F 50% 30.11 in 10.0 mi East 8.1 mph - N/A   Scattered Clouds
3:35 PM 50.0 °F - 32.0 °F 50% 30.11 in 10.0 mi ESE 9.2 mph - N/A   Scattered Clouds
3:55 PM 50.0 °F - 32.0 °F 50% 30.11 in 10.0 mi East 5.8 mph - N/A   Scattered Clouds
4:15 PM 50.0 °F - 32.0 °F 50% 30.11 in 10.0 mi ESE 8.1 mph - N/A   Scattered Clouds
4:35 PM 50.0 °F - 32.0 °F 50% 30.09 in 10.0 mi ESE 8.1 mph - N/A   Scattered Clouds
4:55 PM 48.2 °F - 32.0 °F 54% 30.10 in 10.0 mi ESE 5.8 mph - N/A   Mostly Cloudy
5:15 PM 48.2 °F - 32.0 °F 54% 30.10 in 10.0 mi ESE 6.9 mph - N/A   Mostly Cloudy
5:35 PM 48.2 °F - 32.0 °F 54% 30.09 in 10.0 mi East 8.1 mph - N/A   Mostly Cloudy
5:55 PM 48.2 °F - 32.0 °F 54% 30.09 in 10.0 mi East 6.9 mph - N/A   Mostly Cloudy
6:15 PM 48.2 °F - 32.0 °F 54% 30.08 in 10.0 mi East 6.9 mph - N/A   Mostly Cloudy
6:35 PM 48.2 °F - 32.0 °F 54% 30.10 in 10.0 mi ESE 6.9 mph - N/A   Mostly Cloudy
6:55 PM 48.2 °F - 32.0 °F 54% 30.08 in 10.0 mi East 8.1 mph - N/A   Mostly Cloudy
7:15 PM 48.2 °F - 32.0 °F 54% 30.10 in 10.0 mi East 5.8 mph - N/A   Mostly Cloudy
7:35 PM 46.4 °F 42.9 °F 32.0 °F 57% 30.10 in 10.0 mi East 6.9 mph - N/A   Overcast
7:55 PM 46.4 °F 44.3 °F 32.0 °F 57% 30.10 in 10.0 mi East 4.6 mph - N/A   Overcast
8:15 PM 46.4 °F 43.5 °F 32.0 °F 57% 30.10 in 10.0 mi ESE 5.8 mph - N/A   Overcast
8:35 PM 46.4 °F 44.3 °F 32.0 °F 57% 30.10 in 10.0 mi ENE 4.6 mph - N/A   Overcast
8:55 PM 46.4 °F 43.5 °F 32.0 °F 57% 30.10 in 10.0 mi East 5.8 mph - N/A   Overcast
9:15 PM 46.4 °F 45.2 °F 32.0 °F 57% 30.10 in 10.0 mi ENE 3.5 mph - N/A   Overcast
9:35 PM 46.4 °F 45.2 °F 32.0 °F 57% 30.11 in 10.0 mi ENE 3.5 mph - N/A   Mostly Cloudy
9:55 PM 46.4 °F 44.3 °F 32.0 °F 57% 30.11 in 10.0 mi NE 4.6 mph - N/A   Overcast
10:15 PM 46.4 °F 42.9 °F 32.0 °F 57% 30.10 in 10.0 mi East 6.9 mph - N/A   Overcast
10:35 PM 46.4 °F 44.3 °F 32.0 °F 57% 30.10 in 10.0 mi East 4.6 mph - N/A   Mostly Cloudy
10:55 PM 46.4 °F 44.3 °F 32.0 °F 57% 30.10 in 10.0 mi NNE 4.6 mph - N/A   Mostly Cloudy
11:15 PM 46.4 °F 42.9 °F 32.0 °F 57% 30.10 in 10.0 mi North 6.9 mph - N/A   Overcast
11:35 PM 46.4 °F 42.9 °F 32.0 °F 57% 30.12 in 10.0 mi North 6.9 mph - N/A   Overcast
11:55 PM 44.6 °F 40.7 °F 32.0 °F 61% 30.11 in 10.0 mi NNE 6.9 mph - N/A   Overcast